RH
40 43 59 80 89 93 93 91 95 98 97 98 98 99 98 98 97 91 79 81 74 73 73 70 74 77 81 62 56 65 63 69 69 68 76 73 73 73 71 76 70 71 70
42 45 75 81 90 92 94 89 91 95 94 92 93 93 96 96 93 92 88 76 74 66 70 69 74 71 77 76 66 64 68 65 70 65 70 72 66 70 70 74 70 75 69
45 50 63 91 95 94 94 88 89 92 91 91 93 93 94 96 96 93 86 73 71 61 62 64 70 70 70 71 67 64 60 63 66 60 66 77 73 74 72 73 74 70 76
43 50 54 74 96 95 94 84 86 89 88 89 91 92 91 93 84 82 72 66 70 67 64 64 66 69 78 79 72 61 68 68 66 72 63 72 82 86 86 75 76 72 68
44 53 57 59 79 92 96 92 86 86 85 84 86 84 83 78 80 86 86 75 74 71 65 73 72 77 79 83 80 76 62 79 83 71 70 80 88 87 92 90 82 75 78
43 49 56 57 71 90 96 95 90 87 85 85 84 86 83 83 79 94 95 85 76 72 73 69 76 75 76 79 88 85 73 74 85 89 86 81 79 86 92 93 91 86 80
42 49 59 64 64 89 96 94 91 89 85 85 85 86 83 80 76 84 84 80 81 83 85 76 83 87 76 76 82 88 85 83 86 90 88 90 88 85 86 93 92 91 90
42 48 53 60 63 79 91 88 91 84 85 85 88 84 81 82 73 72 76 75 73 73 74 79 72 83 83 85 86 87 82 82 89 88 93 85 85 86 83 85 92 94 96
40 46 48 54 61 69 86 89 88 81 80 85 85 85 78 76 78 70 68 69 64 63 77 79 78 75 73 81 82 85 87 91 91 94 90 87 78 85 76 81 84 82 89
32 44 46 50 56 65 74 82 83 80 79 80 82 81 80 77 76 78 74 68 66 62 61 79 83 78 75 79 82 81 83 90 89 85 88 87 82 84 89 78 84 92 84
30 31 43 46 51 58 74 74 76 78 82 81 79 82 82 80 77 80 77 74 70 65 64 73 80 81 80 72 76 78 77 83 79 80 83 83 78 82 84 92 84 85 86
33 37 37 40 53 56 63 70 69 72 79 81 81 84 81 80 82 80 76 76 75 71 67 64 72 76 75 75 73 75 75 84 84 81 82 82 79 88 86 87 87 86 83
38 40 39 41 45 59 66 63 66 66 64 81 85 88 85 79 79 78 77 70 76 76 73 70 66 66 69 71 77 76 76 77 80 78 83 79 82 85 86 88 87 88 90
41 41 44 45 47 53 57 63 68 68 64 71 83 86 86 81 80 76 74 77 74 78 75 73 72 70 67 67 65 66 75 77 76 76 77 78 79 81 81 84 88 86 91
43 44 48 49 48 49 51 52 57 64 74 68 68 81 84 82 81 80 76 76 77 75 72 74 72 71 68 63 70 69 70 72 72 73 72 72 74 79 77 76 82 86 90
45 45 45 48 54 61 66 65 63 63 58 70 66 62 74 81 82 82 82 81 79 77 76 73 73 74 66 73 79 71 68 66 70 74 74 74 85 84 86 88 87 82 90
48 50 51 57 64 68 67 70 67 64 62 62 60 64 61 68 76 77 79 80 81 80 79 77 77 73 72 86 87 82 63 68 72 74 75 78 79 89 82 100 99 99 98
51 54 57 65 69 70 72 72 70 69 69 75 74 75 79 68 61 70 74 76 77 80 80 79 78 78 75 93 95 94 79 72 71 76 78 79 84 94 98 99 98 98 97
54 54 60 68 71 70 68 71 72 73 73 77 77 75 78 80 82 69 71 70 72 75 78 79 80 80 80 98 93 94 86 84 98 98 99 99 99 100 98 98 97 98 98
56 57 59 65 69 69 67 70 72 74 78 78 78 78 77 82 86 88 80 69 71 75 79 96 98 99 100 100 100 99 98 99 99 98 99 98 98 98 94 93 91 94 97
63 63 63 67 70 67 68 73 74 79 75 75 76 77 79 84 86 92 96 81 89 99 99 98 99 98 99 99 100 100 98 98 98 98 98 98 97 95 93 92 92 95 95
67 66 70 70 69 69 72 78 81 77 79 77 78 81 82 82 83 94 97 98 98 98 98 98 98 98 98 98 97 97 95 93 94 97 97 98 95 93 92 92 94 95 95
71 67 69 71 74 74 76 82 84 81 81 81 83 83 81 81 84 91 96 97 98 99 98 98 97 97 97 97 95 96 97 95 95 94 96 96 93 92 94 95 95 96 97
72 70 72 77 82 79 78 81 83 82 81 84 85 84 85 84 86 86 89 95 97 97 96 96 96 96 94 95 92 91 91 92 93 94 94 94 95 96 96 95 94 94 95
72 73 78 80 84 81 84 84 88 84 85 84 86 87 85 86 84 90 93 91 96 95 94 96 94 94 95 98 95 94 94 94 95 94 95 96 94 95 95 94 93 93 93
82 81 86 86 89 88 89 89 90 88 87 89 91 94 93 92 87 82 88 95 95 94 95 96 94 97 96 97 96 97 97 97 96 93 95 96 96 95 94 93 93 93 93
Wind_Speed
13 14 14 17 14 11 12 11 9 9 7 6 5 4 5 6 9 9 13 12 8 8 7 8 7 5 8 9 11 6 6 3 5 4 3 0 4 6 5 7 9 10 11
15 15 16 14 15 13 11 11 10 10 7 6 5 4 6 7 9 10 10 11 7 9 6 8 7 3 7 3 6 6 3 3 5 4 4 2 2 3 5 3 7 11 10
19 17 17 16 15 14 13 12 12 11 8 7 6 6 6 7 6 10 9 9 9 9 8 11 11 5 7 9 6 6 7 4 2 5 6 3 5 1 2 7 4 6 5
19 19 17 17 17 14 12 14 12 12 10 9 9 11 9 10 8 9 7 8 8 7 9 11 10 10 5 6 5 5 5 5 5 1 3 3 5 4 1 1 4 6 7
23 20 19 17 17 16 13 12 13 13 12 11 11 9 11 8 8 6 5 5 6 7 7 7 7 6 4 5 7 7 9 5 4 4 3 2 1 2 3 3 3 2 5
21 20 18 17 15 15 14 12 14 13 13 12 13 13 14 11 9 6 6 4 7 7 8 8 7 6 6 6 5 7 9 8 5 4 4 5 4 4 4 2 4 6 5
21 19 19 17 15 18 16 14 15 13 13 14 14 14 13 13 14 11 10 9 4 5 6 6 5 4 7 7 7 8 7 7 8 7 5 4 4 3 3 4 4 5 5
20 20 21 19 18 18 18 17 16 15 14 15 13 14 13 10 10 13 10 9 8 7 9 10 10 8 7 8 8 6 8 9 10 9 6 6 6 4 5 5 4 2 4
17 22 19 18 19 18 20 19 18 17 16 15 13 13 13 15 13 15 13 11 11 9 7 11 11 11 11 8 9 7 8 7 8 9 9 7 6 4 7 6 6 7 6
7 17 18 17 17 19 20 18 18 18 18 15 14 13 15 14 14 12 15 15 13 14 13 11 13 13 12 10 9 10 9 9 8 9 10 10 8 7 8 9 8 7 10
8 7 13 17 19 17 17 17 17 18 17 18 15 14 14 14 13 13 14 15 15 17 17 13 13 13 14 15 15 14 14 14 14 13 13 15 14 10 9 8 9 10 9
16 18 19 16 4 16 15 18 17 17 18 18 17 16 14 15 16 17 17 17 17 17 18 18 16 16 16 16 18 18 15 15 16 16 16 16 11 13 13 10 14 12 12
18 17 17 17 16 12 3 14 15 16 15 18 18 18 17 17 18 19 17 18 17 18 18 18 21 21 20 19 18 17 17 18 18 17 16 18 15 15 13 13 12 11 10
15 15 14 14 12 11 10 10 4 8 12 16 18 18 19 20 18 17 16 17 18 18 20 20 20 20 20 20 21 21 19 19 19 18 18 18 18 18 17 14 14 13 11
17 17 15 13 13 13 11 8 4 5 9 11 17 19 19 19 19 19 21 18 19 18 18 19 20 20 20 17 21 21 21 21 21 20 19 18 19 20 19 12 15 13 12
14 17 17 17 15 15 14 13 12 14 12 9 17 13 17 18 20 19 20 20 21 21 18 22 20 20 17 22 21 21 19 21 20 19 18 16 15 18 19 20 20 16 16
16 15 14 14 14 15 15 15 14 12 11 10 10 12 13 16 19 20 20 21 22 20 23 22 20 23 21 18 19 23 20 16 16 16 15 13 12 13 11 8 11 9 9
15 14 12 13 13 15 17 17 16 15 13 13 13 14 15 11 14 16 19 20 19 20 20 21 22 20 19 19 20 19 17 17 18 16 16 16 12 9 11 9 9 10 11
13 13 12 12 13 14 14 15 15 16 16 17 16 15 12 13 14 15 17 19 17 18 18 17 18 20 20 13 19 16 14 13 4 5 4 2 5 10 17 13 14 12 12
14 14 13 12 12 12 13 14 14 15 17 18 19 17 15 13 14 14 18 17 15 18 13 4 5 7 4 5 4 12 5 8 6 6 7 10 11 14 15 15 14 13 9
17 15 13 12 12 11 11 12 13 15 17 18 17 16 16 15 13 15 12 13 7 9 9 10 6 7 6 6 7 8 8 9 8 7 7 7 18 21 21 18 10 12 10
18 18 14 13 13 13 11 13 13 14 14 14 15 15 14 11 11 14 11 10 7 7 9 9 7 7 8 10 14 15 15 14 12 11 10 13 25 27 27 19 25 20 12
13 13 12 13 12 14 14 15 15 15 13 12 13 12 13 13 11 13 13 7 7 6 5 7 8 9 9 11 22 25 25 22 16 12 23 29 29 25 21 26 18 12 10
12 11 12 13 14 14 15 14 14 13 11 11 12 11 12 14 15 11 11 10 8 8 7 6 9 9 10 10 9 11 15 24 17 17 14 16 19 19 12 10 10 10 9
11 11 12 12 13 14 14 15 14 13 11 11 11 11 10 12 14 18 14 13 15 12 10 10 8 7 11 11 14 12 10 11 12 12 11 11 5 10 9 9 9 9 9
9 11 11 11 12 12 13 14 13 12 10 10 9 9 8 9 10 11 15 32 30 32 32 28 18 16 17 28 24 23 20 21 16 9 10 10 9 7 9 7 10 8 8
Wind_Direction
176 153 142 139 137 137 143 152 160 144 143 145 163 187 202 155 169 177 175 166 176 168 152 156 156 150 164 172 169 145 146 146 154 110 59 3 192 188 187 170 184 186 195
156 149 139 145 151 152 150 151 151 151 156 158 162 168 163 173 163 163 174 176 183 158 149 135 135 146 138 164 158 126 119 145 153 142 125 161 324 267 224 208 180 191 195
158 156 152 155 151 158 161 161 159 155 160 149 127 128 125 127 148 157 175 190 168 155 149 133 143 187 149 175 164 139 139 134 241 155 148 127 207 154 218 226 212 199 188
163 164 159 155 161 163 156 155 160 154 163 155 145 146 148 152 158 160 178 173 166 162 141 154 165 175 183 147 155 147 124 144 201 168 221 143 148 169 205 298 220 202 210
164 167 168 165 153 153 157 153 160 161 167 170 158 159 155 158 151 152 161 165 175 174 169 153 171 167 155 164 166 163 184 174 161 183 175 168 159 159 133 231 258 201 219
167 165 164 156 151 152 152 156 161 170 171 176 169 174 168 165 169 159 172 178 180 189 184 167 168 176 177 178 187 181 194 181 187 185 179 176 171 193 160 173 214 199 227
159 156 157 163 162 156 158 159 168 176 179 180 183 181 179 179 183 180 184 186 177 178 185 184 175 173 200 201 188 194 197 188 209 197 200 201 201 160 171 154 217 203 235
154 159 166 167 168 161 160 165 171 176 187 187 185 189 184 185 192 193 192 198 192 192 197 190 197 186 192 202 189 184 195 204 211 212 205 204 209 189 177 195 172 264 238
149 167 167 167 167 166 168 170 172 173 186 191 186 193 192 192 196 199 201 203 200 197 176 196 206 211 209 204 200 201 197 190 202 211 218 215 227 228 213 214 205 221 242
111 159 167 170 172 172 172 166 173 177 178 188 196 197 199 198 198 196 202 206 208 209 208 191 194 204 213 210 211 214 210 201 216 218 215 218 221 210 213 223 222 212 229
75 95 178 174 175 170 169 173 173 176 180 187 197 202 201 200 204 205 206 208 209 212 214 209 207 203 206 211 215 216 215 216 223 224 217 224 222 222 223 215 221 230 226
57 57 57 41 194 169 166 177 181 184 182 184 190 200 205 202 206 210 210 204 212 214 214 217 216 219 218 216 219 218 215 214 218 219 220 225 217 219 216 216 223 228 230
57 46 40 47 47 39 296 182 183 191 189 183 187 193 203 209 216 216 212 217 213 216 215 215 220 221 220 221 221 221 220 221 222 222 217 224 217 224 223 223 228 227 228
58 57 45 43 45 44 35 37 325 247 189 181 190 196 198 204 211 219 223 218 217 215 220 220 220 221 221 224 226 223 223 224 226 225 224 223 221 224 227 227 226 228 227
46 50 51 38 28 26 25 31 350 338 222 215 195 200 201 202 203 208 216 220 222 221 221 220 222 220 221 223 219 222 225 228 231 230 229 228 227 225 225 224 230 231 230
56 46 34 30 31 24 15 10 6 356 345 236 240 220 201 200 207 208 208 211 220 224 221 226 225 223 225 225 215 216 223 226 226 228 227 228 224 228 226 224 228 228 222
61 53 45 37 26 15 4 0 352 347 354 337 345 256 233 210 210 209 207 213 216 212 220 226 225 230 230 224 214 214 227 225 226 228 229 228 229 219 223 108 99 57 27
60 51 44 44 30 17 2 346 349 353 349 6 352 348 0 317 245 211 209 215 215 215 217 220 224 228 231 224 219 215 221 231 233 229 228 230 223 197 159 134 97 68 45
65 55 53 49 36 15 354 347 350 347 353 351 345 340 334 342 328 293 221 218 218 216 217 219 223 224 231 214 212 194 215 228 82 52 34 99 124 133 134 123 114 101 84
50 52 46 53 39 11 357 354 350 351 346 340 335 329 339 336 322 310 306 229 217 215 216 139 59 42 119 34 230 211 155 126 114 83 69 76 108 109 120 122 125 108 110
40 36 38 47 32 8 5 2 355 350 332 332 332 340 341 337 336 324 335 294 196 112 113 110 86 74 55 44 38 151 149 144 127 111 98 94 105 109 107 105 104 104 117
25 25 24 23 17 8 5 4 1 342 335 340 345 347 345 348 350 345 347 10 22 105 121 114 88 61 44 62 79 88 97 112 110 102 93 94 100 99 96 98 105 100 96
28 21 18 15 13 10 7 359 351 345 353 1 5 2 3 2 10 11 0 2 37 41 59 88 81 69 57 61 73 91 90 92 96 96 106 94 85 73 83 92 79 99 89
30 21 18 19 11 6 8 5 353 354 7 14 16 13 21 28 30 32 27 20 19 57 55 46 95 91 89 75 66 80 80 96 86 99 78 65 97 88 70 64 69 61 75
34 34 29 24 14 6 10 2 1 5 16 22 23 24 26 36 50 51 44 46 45 52 67 63 38 76 89 71 91 89 82 88 95 106 91 99 53 85 91 76 73 65 64
40 43 33 28 18 16 15 10 6 19 26 35 29 26 32 27 45 56 68 52 55 61 64 66 69 65 72 93 91 85 85 80 71 59 77 80 82 71 74 80 78 77 69